Lima, Perú

3:14 PM PET en Marzo 05, 2015 (GMT -0500)
Jorge Chavez International | Change Station
CLOSE
Current Station
Aeropuerto
Location: Lima,
Altura: 43 ft
Estaciones meteorológicas cercanas

Alt 43 ft 12.01 °S, 77.12 °W | Updated 14 minutes ago

Overcast
Nublado
75 ° F
Sensación térmica 75 ° F
N
8
Viento Variable Viento desde Sur

Hoy
Alta -- | Baja -- ° F
--% Posibilidad de precipitaciones
Ayer
Alta -- | Baja -- ° F
Precip. -- pul
6:11 AM 6:28 PM
Luna llena, 100% visible
Presión 29.80 pul
Visibilidad 6.2 Millas
Nubes Nublado 6000 ft
Punto de rocío 68 ° F
Humedad 78%
Precipitaciones 0.00 pul
Espesor de la nieve No disponible.
UV 3 de una escala de 12
Polen No disponible.
Calidad del aire No disponible.
Flu Activity No disponible.
METAR SPIM 052000Z 19007KT 150V230 9999 OVC060 24/20 Q1009 NOSIG RMK PP000

More Conditions Fewer Conditions

Presión 29.80 pul
Visibilidad 6.2 Millas
Nubes Nublado 6000 ft
Punto de rocío 68 ° F
Humedad 78%
Precipitaciones 0.00 pul
Espesor de la nieve No disponible.
UV 3 de una escala de 12
Polen No disponible.
Calidad del aire No disponible.
Flu Activity No disponible.
METAR SPIM 052000Z 19007KT 150V230 9999 OVC060 24/20 Q1009 NOSIG RMK PP000

More Conditions Fewer Conditions

10-Day Weather Forecast

Almanac

Astronomía

Mar. 05, 2015 Salida Puesta
Hora real
Crepúsculo civil
Crepúsculo náutico
Crepúsculo astronómico
Luna
Horas de luz
Horas de luz
Tomorrow will be .
, % of the Moon is Illuminated

Extremos de hoy

Máximos del país Bajas del país

Community

WunderPhotos

Upload Photos

1,802,938 ¡fotos cargadas!

WunderBlogs® & News

Nearby

Calidad del aire

  Calidad del aire Índice AQ Contaminante
Not available.

Grosos de nieve

Estación Profundido Altura

Actividad de terremotos

Ciudad Distance Mag. Tiempo y dato
Magnitud mínima muestra es 2,5.

Temperaturas de aguas costeras

Lugar Temperatura

Estaciones meteorológicas cercanas